Wind_Speed
10 7 5 5 3 3 4 2 4 7 8 5 4 6 5 6 6 6 6 6 7 6 8 5 4 7 10 10 8 6 9 16 16 20 17 16 32 30 42 44 44 37 29
9 7 5 4 2 3 2 4 3 8 8 7 6 6 6 6 6 6 6 7 6 4 4 3 5 6 9 8 3 2 6 16 19 24 23 34 42 47 45 43 37 30 28
9 8 6 4 2 2 3 2 5 9 8 8 7 6 5 5 5 6 6 7 9 6 6 5 3 6 8 5 4 9 10 14 19 33 40 48 47 43 42 33 32 29 27
9 8 6 5 3 5 4 4 7 7 11 9 7 6 6 6 5 6 7 8 8 8 8 7 6 7 8 6 10 12 15 33 40 46 47 47 47 43 41 36 28 24 23
10 9 7 4 6 5 6 6 6 7 10 9 8 7 7 7 6 8 8 7 8 8 8 8 7 9 6 8 11 16 22 39 43 46 45 46 44 38 32 32 29 26 21
11 10 7 8 8 7 8 7 8 8 8 9 9 7 7 6 7 9 8 8 8 8 10 5 6 9 10 11 11 14 23 42 45 44 44 43 38 36 31 29 30 25 21
12 11 10 7 7 7 8 8 8 8 8 8 8 8 8 9 10 10 10 8 9 7 7 10 11 9 11 12 14 14 18 34 39 39 43 40 35 32 26 28 25 21 19
14 12 11 8 7 8 7 8 7 9 8 8 8 12 12 12 10 15 12 7 9 8 9 10 11 12 14 14 14 18 27 32 32 37 39 38 32 23 20 21 22 14 15
15 14 13 10 8 8 7 7 8 9 8 9 12 13 11 12 11 14 12 8 8 9 12 9 12 13 14 15 16 23 27 33 28 31 33 29 21 22 19 24 18 16 15
16 15 14 11 10 8 7 6 7 8 7 7 8 13 17 12 12 13 10 11 13 12 13 17 16 17 18 18 19 23 26 30 29 30 29 26 22 19 18 18 17 14 16
17 15 15 13 12 9 8 5 9 9 7 10 8 13 19 17 13 12 13 12 13 15 19 21 18 17 19 21 18 19 28 28 35 33 26 25 24 19 15 16 17 13 13
18 17 16 14 12 10 9 9 10 7 7 8 11 13 13 15 12 12 14 14 18 16 20 20 19 17 17 17 20 25 29 29 27 28 26 22 21 19 16 14 16 17 18
20 19 17 15 14 12 12 10 10 9 6 8 12 13 14 12 15 17 15 22 21 18 20 19 19 16 15 16 19 22 24 21 20 20 18 17 18 17 21 23 22 22 16
22 21 19 18 16 14 12 12 10 10 8 9 12 12 14 14 16 15 18 25 22 15 15 16 17 19 15 17 20 22 16 15 17 18 17 17 20 24 22 18 17 18 18
23 22 21 19 19 16 14 13 11 11 11 10 10 13 14 16 17 19 20 21 16 15 18 18 18 17 17 18 20 21 14 18 18 22 23 22 19 17 17 17 14 14 12
26 24 23 21 21 18 17 16 16 16 16 13 15 14 14 15 18 20 22 21 17 18 15 14 14 14 14 16 16 15 14 15 14 13 13 13 14 15 15 15 14 15 13
29 26 23 22 20 21 20 18 19 19 21 19 19 16 16 15 14 19 22 24 23 18 15 15 14 15 16 17 17 18 17 16 16 16 17 17 17 18 20 17 17 16 16
29 27 25 24 22 22 21 21 18 19 19 24 24 22 19 19 18 19 22 23 25 24 19 17 16 17 18 19 19 20 20 20 19 19 20 21 22 19 19 20 19 20 18
30 27 26 23 22 21 21 21 20 19 19 19 21 29 27 23 20 21 22 22 21 22 23 19 18 19 19 20 21 23 25 25 25 25 26 25 25 23 23 22 21 22 21
32 29 29 24 24 23 23 22 22 22 21 21 23 24 32 31 29 29 29 27 21 21 21 22 20 20 21 22 25 25 25 27 28 29 28 27 27 26 24 24 23 24 26
29 30 32 27 25 25 25 24 23 23 23 23 24 24 27 34 30 29 31 33 28 23 23 22 22 23 23 24 24 26 27 28 30 30 31 28 28 28 29 27 27 25 26
30 29 34 31 25 26 26 25 24 24 24 24 23 23 28 26 26 27 27 28 30 31 28 26 25 25 26 28 29 29 29 30 31 32 32 30 29 31 30 29 26 27 25
31 30 29 33 30 27 27 26 26 26 25 25 24 24 28 30 27 28 31 30 30 29 29 32 30 28 28 29 30 32 32 32 32 32 32 30 31 31 30 31 28 24 24
32 31 32 29 32 29 28 29 28 28 26 26 26 26 27 29 29 30 29 30 31 31 30 29 31 31 31 32 32 33 33 33 32 31 30 32 30 29 30 27 23 23 29
30 32 32 33 32 36 31 30 30 28 29 28 28 27 27 27 26 27 29 31 30 31 31 33 33 32 33 34 33 31 32 33 33 31 28 30 32 29 27 24 25 26 31
32 31 33 33 32 34 36 34 33 32 29 29 30 28 28 28 28 29 29 31 34 36 35 34 36 33 31 31 31 34 33 34 34 33 33 28 24 26 25 27 26 28 36
Wind_Direction
173 176 186 216 209 279 297 201 191 158 162 166 160 142 156 159 164 171 144 154 166 186 189 221 190 148 134 148 159 179 190 178 177 168 162 180 170 156 155 152 151 149 153
173 177 193 202 214 285 121 234 160 151 164 169 154 153 145 140 151 137 133 142 161 175 176 171 156 148 158 152 151 149 178 184 191 160 163 164 156 153 156 150 151 153 159
171 175 184 188 194 169 152 146 152 157 167 169 167 150 141 134 126 129 140 150 188 175 161 168 156 164 145 123 140 134 124 153 165 151 142 150 151 151 149 151 155 153 158
168 172 174 194 145 137 126 130 131 155 153 170 163 148 142 149 142 145 162 191 173 159 166 153 169 138 145 152 149 146 134 144 140 134 136 142 147 153 153 156 156 158 160
166 168 168 178 150 158 122 133 150 148 158 169 158 159 162 148 169 158 178 157 150 156 160 153 160 147 136 137 147 153 152 149 145 145 146 146 152 152 155 151 145 142 142
164 164 159 151 151 160 134 143 151 141 145 169 166 155 138 145 166 161 155 140 147 157 157 173 174 141 135 140 139 150 155 158 153 150 153 154 156 159 152 149 143 142 142
163 162 155 161 150 161 150 155 162 160 146 154 149 153 137 154 141 139 132 149 149 157 168 166 155 140 130 124 124 148 156 166 166 163 159 156 153 153 151 155 152 146 149
164 163 157 154 153 155 171 161 171 157 163 158 163 144 140 136 127 120 116 132 137 144 149 151 152 150 142 134 132 154 165 170 168 167 163 159 157 148 152 150 141 157 177
169 167 163 160 157 145 144 164 163 144 153 175 186 181 166 149 136 131 127 136 131 134 133 132 126 131 141 140 142 163 167 170 171 169 163 153 146 147 146 142 158 171 167
172 170 167 167 161 159 156 178 153 138 135 153 178 196 190 166 157 143 139 150 134 135 144 131 118 112 134 141 138 155 166 163 162 158 156 159 159 164 168 161 160 169 165
173 171 170 168 165 167 152 161 143 130 118 124 111 130 166 183 179 162 140 164 144 143 141 137 117 112 124 127 125 135 150 146 151 164 162 170 174 171 177 180 167 182 196
176 173 172 170 163 169 152 149 142 143 132 129 111 128 151 176 174 166 160 155 145 145 152 139 126 122 129 131 133 140 138 140 146 162 173 175 181 186 186 178 196 209 195
177 176 174 172 166 167 155 160 160 134 138 131 125 126 137 154 150 142 150 147 147 133 142 155 150 139 135 139 143 149 143 151 155 160 166 172 176 174 191 200 203 209 215
179 178 177 175 172 169 164 162 163 159 153 151 134 130 137 144 152 146 142 157 145 142 152 149 148 142 136 144 146 148 139 158 162 165 168 171 184 202 205 210 214 219 226
181 181 180 180 178 178 172 173 174 171 170 162 156 150 150 157 164 156 149 156 158 161 161 157 155 157 155 161 163 162 171 181 176 185 188 195 202 203 205 212 209 208 211
181 184 185 184 184 185 182 185 185 187 185 175 166 169 177 181 188 174 164 168 173 185 162 164 170 175 177 176 180 183 184 184 184 191 192 197 196 196 199 203 202 208 206
184 186 189 186 191 189 190 191 192 194 196 188 183 184 189 184 200 195 182 180 186 186 179 187 187 193 192 193 195 198 198 203 198 201 205 206 204 206 208 209 209 213 215
191 191 188 188 195 194 196 194 195 197 196 199 196 197 194 200 202 195 192 194 195 196 200 202 205 205 202 203 205 207 209 211 214 211 213 214 212 213 214 216 219 218 219
193 194 191 196 197 198 200 200 199 198 199 199 200 204 205 207 202 201 201 200 201 206 208 211 214 213 213 211 212 213 214 215 218 217 217 218 219 217 220 224 224 227 223
198 195 194 197 196 200 201 203 204 203 201 201 205 207 208 208 208 206 208 206 210 217 217 219 219 219 219 218 219 220 221 221 222 225 223 222 223 224 226 229 229 230 227
200 201 201 195 200 202 202 205 205 205 206 207 209 211 211 212 210 213 217 218 216 217 223 227 228 226 224 225 226 225 226 226 228 227 227 227 226 227 230 230 234 234 234
204 204 204 200 203 205 206 206 208 208 209 210 212 214 221 226 212 216 219 224 225 223 220 224 229 230 231 230 228 228 228 229 228 230 229 229 230 232 232 235 234 235 232
208 209 208 206 208 209 208 209 211 212 212 213 213 213 215 220 218 219 221 224 228 233 232 224 225 229 230 233 234 235 233 233 233 232 233 233 232 234 234 235 232 234 231
211 212 212 212 210 212 213 212 212 215 214 215 216 216 221 218 222 222 222 225 227 228 232 234 233 229 231 232 235 236 239 238 238 237 237 238 238 239 239 239 238 233 228
215 215 213 211 211 213 214 213 213 213 216 216 219 221 222 224 226 229 230 227 229 230 231 232 234 235 233 230 233 234 235 239 239 232 234 239 240 241 242 238 233 229 230
215 216 216 213 213 213 213 211 212 212 213 217 217 220 223 225 229 233 232 230 232 230 233 234 236 236 236 239 240 237 234 237 240 240 235 233 240 238 236 235 228 225 224
Height
1433 1435 1437 1438 1439 1439 1438 1439 1439 1440 1443 1444 1445 1445 1446 1447 1449 1450 1451 1452 1453 1455 1455 1456 1455 1456 1460 1460 1462 1464 1466 1469 1472 1477 1482 1485 1487 1492 1503 1508 1515 1522 1529
1433 1435 1437 1437 1439 1438 1439 1439 1439 1441 1444 1445 1446 1447 1448 1449 1450 1451 1452 1454 1455 1456 1456 1456 1457 1457 1459 1461 1463 1463 1464 1466 1469 1474 1480 1486 1489 1495 1505 1512 1520 1526 1532
1432 1434 1436 1438 1438 1438 1439 1439 1440 1441 1445 1446 1447 1449 1449 1450 1452 1452 1454 1455 1454 1455 1457 1457 1457 1459 1462 1462 1463 1464 1465 1466 1469 1473 1480 1485 1491 1501 1509 1517 1523 1529 1534
1431 1434 1436 1437 1438 1439 1439 1440 1440 1442 1444 1447 1447 1449 1450 1452 1453 1453 1454 1454 1454 1456 1457 1459 1459 1462 1462 1463 1465 1466 1468 1470 1473 1476 1482 1491 1498 1507 1514 1519 1526 1531 1536
1431 1433 1436 1436 1439 1439 1441 1441 1441 1443 1444 1447 1448 1449 1449 1450 1451 1452 1453 1454 1457 1458 1458 1460 1460 1462 1464 1465 1467 1469 1471 1475 1478 1482 1489 1496 1503 1510 1517 1523 1528 1533 1540
1430 1433 1436 1437 1439 1440 1441 1442 1442 1443 1444 1445 1446 1448 1450 1454 1452 1453 1454 1457 1458 1459 1460 1461 1463 1465 1467 1468 1470 1472 1476 1477 1482 1487 1493 1499 1508 1514 1520 1526 1531 1536 1542
1430 1433 1436 1437 1439 1440 1442 1443 1443 1444 1445 1445 1448 1449 1452 1452 1453 1454 1456 1458 1459 1460 1461 1463 1465 1466 1468 1470 1472 1476 1480 1483 1487 1491 1495 1505 1511 1518 1523 1528 1534 1539 1543
1429 1432 1435 1438 1439 1441 1442 1443 1443 1444 1445 1446 1448 1450 1453 1454 1456 1457 1459 1461 1462 1463 1463 1465 1466 1468 1470 1473 1475 1478 1482 1487 1493 1497 1502 1509 1516 1522 1527 1531 1536 1542 1545
1428 1432 1435 1438 1439 1441 1443 1443 1444 1445 1446 1447 1449 1451 1453 1456 1458 1460 1462 1464 1465 1466 1468 1468 1468 1470 1472 1475 1477 1480 1485 1490 1497 1503 1510 1516 1521 1525 1530 1533 1538 1542 1545
1427 1431 1434 1437 1440 1442 1444 1444 1445 1446 1447 1448 1448 1450 1454 1458 1460 1462 1463 1466 1467 1468 1470 1472 1475 1475 1476 1479 1482 1484 1489 1494 1501 1508 1514 1520 1524 1527 1532 1536 1539 1542 1545
1426 1430 1434 1437 1440 1442 1444 1445 1446 1448 1449 1450 1449 1450 1453 1458 1460 1463 1465 1468 1470 1472 1474 1476 1479 1480 1482 1485 1488 1490 1494 1498 1505 1510 1516 1521 1525 1529 1532 1536 1538 1543 1544
1425 1429 1433 1437 1440 1442 1444 1446 1449 1450 1451 1452 1452 1453 1456 1459 1462 1463 1466 1469 1473 1474 1476 1481 1483 1485 1487 1490 1492 1496 1499 1504 1509 1513 1518 1522 1526 1530 1533 1536 1538 1537 1539
1424 1428 1432 1436 1440 1442 1445 1448 1450 1452 1454 1454 1455 1457 1459 1461 1463 1465 1468 1472 1475 1479 1481 1482 1485 1487 1491 1494 1497 1501 1505 1510 1513 1516 1520 1523 1526 1529 1530 1531 1534 1536 1538
1422 1427 1431 1435 1439 1442 1446 1449 1451 1453 1455 1456 1457 1460 1463 1465 1466 1468 1471 1475 1478 1481 1483 1486 1489 1491 1494 1497 1500 1505 1508 1512 1515 1518 1521 1524 1526 1526 1528 1530 1532 1534 1536
1420 1425 1429 1433 1438 1441 1445 1448 1451 1453 1455 1457 1459 1460 1464 1467 1469 1471 1474 1478 1481 1484 1486 1488 1491 1494 1496 1499 1502 1506 1510 1512 1514 1516 1518 1520 1522 1524 1526 1528 1530 1532 1533
1417 1422 1426 1431 1435 1439 1443 1446 1449 1451 1454 1456 1459 1462 1464 1466 1468 1472 1475 1479 1482 1484 1488 1490 1493 1496 1498 1501 1504 1507 1510 1512 1515 1517 1519 1520 1522 1524 1526 1527 1529 1530 1532
1413 1418 1423 1428 1432 1436 1440 1443 1447 1450 1453 1456 1459 1461 1462 1464 1468 1471 1474 1477 1481 1485 1488 1490 1492 1495 1498 1501 1503 1506 1509 1511 1513 1515 1516 1517 1519 1520 1521 1523 1524 1525 1527
1411 1415 1420 1424 1428 1432 1436 1439 1443 1446 1450 1453 1457 1459 1461 1464 1466 1469 1472 1476 1479 1482 1485 1488 1490 1492 1495 1497 1500 1502 1505 1507 1508 1510 1511 1512 1512 1515 1517 1518 1519 1520 1521
1407 1412 1416 1420 1424 1428 1432 1436 1439 1443 1446 1450 1453 1455 1458 1462 1465 1468 1471 1473 1476 1478 1481 1484 1486 1489 1491 1494 1495 1496 1497 1498 1500 1502 1503 1505 1506 1508 1510 1511 1513 1515 1516
1402 1407 1411 1416 1420 1424 1428 1431 1435 1438 1441 1444 1447 1448 1452 1456 1459 1462 1465 1469 1474 1476 1478 1480 1483 1485 1487 1488 1488 1491 1493 1495 1496 1495 1497 1499 1501 1503 1506 1506 1507 1507 1508
1399 1403 1406 1412 1415 1418 1422 1426 1429 1433 1436 1439 1441 1444 1445 1449 1453 1457 1459 1462 1466 1470 1473 1475 1477 1479 1480 1482 1484 1485 1486 1488 1489 1489 1490 1493 1495 1497 1497 1499 1500 1503 1502
1393 1398 1401 1405 1409 1413 1416 1420 1424 1427 1430 1433 1437 1440 1440 1444 1448 1452 1454 1456 1456 1459 1464 1467 1470 1472 1473 1473 1475 1477 1478 1479 1480 1481 1483 1484 1487 1487 1490 1491 1494 1494 1497
1388 1392 1395 1400 1403 1406 1410 1414 1417 1420 1424 1427 1430 1433 1434 1437 1442 1444 1447 1448 1450 1452 1455 1457 1460 1462 1464 1466 1468 1469 1470 1471 1473 1475 1477 1478 1478 1480 1482 1482 1484 1488 1490
1381 1384 1389 1393 1397 1400 1403 1406 1410 1413 1417 1420 1423 1426 1427 1429 1433 1437 1440 1442 1444 1445 1447 1448 1450 1453 1455 1457 1458 1460 1462 1464 1467 1470 1471 1472 1473 1476 1477 1479 1480 1482 1480
1374 1377 1381 1384 1388 1391 1395 1399 1402 1406 1409 1412 1416 1419 1422 1424 1426 1430 1433 1435 1438 1439 1439 1440 1439 1439 1442 1445 1448 1450 1453 1455 1457 1460 1462 1464 1466 1469 1471 1472 1474 1473 1470
1367 1370 1373 1376 1379 1383 1387 1389 1393 1397 1401 1404 1408 1411 1414 1416 1419 1421 1421 1425 1427 1429 1431 1431 1431 1433 1434 1435 1437 1439 1443 1446 1449 1453 1457 1458 1460 1460 1463 1463 1464 1464 1462